Regional Weather Roundup
Issued by NWS

Home | Current Version | Previous Version | Graphics & Text | Print | Product List | Glossary On
Versions: 1 2 3 4 5 6 7 8 9 10 11 12 13 14 15 16 17 18 19 20 21 22 23 24 25 26 27 28 29 30 31 32 33 34 35 36 37 38 39 40 41 42 43 44 45 46 47 48 49 50
000
ASUS43 KMKX 181200
RWRWI

WISCONSIN REGIONAL WEATHER ROUNDUP
NATIONAL WEATHER SERVICE MILWAUKEE/SULLIVAN WI
700 AM CDT THU SEP 18 2014

NOTE: "FAIR" INDICATES FEW OR NO CLOUDS BELOW 12,000 FEET WITH NO
SIGNIFICANT WEATHER AND/OR OBSTRUCTIONS TO VISIBILITY.

WIZ001-002-006>008-014>016-023>028-181300-
NORTHWEST WISCONSIN

CITY           SKY/WX    TMP DP  RH WIND       PRES   REMARKS
SUPERIOR ARPT  CLOUDY    42  38  84 E6        30.15S
ASHLAND        CLOUDY    42  38  85 NE9       30.17S
6HR MIN TEMP:  42; 6HR MAX TEMP:  45;

HAYWARD        CLOUDY    45  43  93 E7        30.13S
6HR MIN TEMP:  44; 6HR MAX TEMP:  45;

SIREN          CLOUDY    45  43  91 E3        30.11R
RICE LAKE      CLOUDY    47  45  93 NE5       30.12S
LADYSMITH      CLOUDY    47  46  93 E7        30.14S
EAU CLAIRE     NOT AVBL
MENOMONIE      CLOUDY    51  49  95 E9        30.09S FOG
NEW RICHMOND   FOG       48  48 100 E7        30.09R VSB 3/4
OSCEOLA        CLOUDY    47  47 100 E6        30.12R
$$

WIZ003>005-009-010-017-018-181300-
NORTH CENTRAL WISCONSIN

CITY           SKY/WX    TMP DP  RH WIND       PRES   REMARKS
WOODRUFF       CLOUDY    42  40  90 E3        30.14S
RHINELANDER    CLOUDY    40  39  97 E7        30.16R
6HR MIN TEMP:  40; 6HR MAX TEMP:  45;

EAGLE RIVER    CLOUDY    38  37  97 SE5       30.15S WCI  34
LAND O LAKES   CLOUDY    38  36  94 SE5       30.17S WCI  34
PHILLIPS       CLOUDY    44  42  93 E6        30.13S
TOMAHAWK       CLOUDY    44  41  90 E3        30.14S
MEDFORD        CLOUDY    46  44  93 E6        30.12S
MERRILL        CLOUDY    44  43  94 SE3       30.15R
$$

WIZ029-030-035-036-043>047-181300-
CENTRAL WISCONSIN

CITY           SKY/WX    TMP DP  RH WIND       PRES   REMARKS
WAUSAU         CLOUDY    44  41  89 SE9       30.15R
6HR MIN TEMP:  44; 6HR MAX TEMP:  50;

MOSINEE        CLOUDY    43  43 100 E8        30.16R
MARSHFIELD     CLOUDY    45  42  89 E12       30.13S
6HR MIN TEMP:  45; 6HR MAX TEMP:  52;

STEVENS POINT  CLOUDY    42  40  92 E6        30.16R
WAUPACA        CLOUDY    46  44  90 NE8       30.17R
WAUTOMA        NOT AVBL
WISC RAPIDS    CLOUDY    46  43  89 E9        30.16R
6HR MIN TEMP:  46; 6HR MAX TEMP:  52;

CAMP DOUGLAS   CLOUDY    50  50 100 E8        30.12S FOG
$$

WIZ011>013-019>022-031-037>040-048>050-181300-
NORTHEAST WISCONSIN

CITY           SKY/WX    TMP DP  RH WIND       PRES   REMARKS
ANTIGO         CLOUDY    40  39  96 E7        30.16R WCI  35
STURGEON BAY   PTCLDY    43  36  75 NE9       30.18S
6HR MIN TEMP:  43; 6HR MAX TEMP:  46;

GREEN BAY      CLOUDY    44  38  79 N10       30.18R
6HR MIN TEMP:  44; 6HR MAX TEMP:  50;

MANITOWOC      CLOUDY    46  43  87 N8        30.17R
APPLETON       CLOUDY    45  39  81 NE10      30.17R
CLINTONVILLE   CLOUDY    43  37  81 NE6       30.18R
OSHKOSH        CLOUDY    49  45  86 NE9       30.15R
6HR MIN TEMP:  49; 6HR MAX TEMP:  53;

$$

WIZ032>034-041-042-053>061-181300-
SOUTHWEST WISCONSIN

CITY           SKY/WX    TMP DP  RH WIND       PRES   REMARKS
LA CROSSE      MOCLDY    51  49  92 E3        30.09R
6HR MIN TEMP:  48; 6HR MAX TEMP:  53;

SPARTA         CLOUDY    49  49  99 E7        30.11R FOG
VIROQUA        FAIR      47  47 100 E7        30.09R
BOSCOBEL       FOG       51  49  92 VRB3      30.11R VSB 1
6HR MIN TEMP:  48; 6HR MAX TEMP:  51;

PRAIRIE DU CHI FOG       47  46  96 CALM      30.08R VSB 1/4
PLATTEVILLE    FAIR      50  48  93 NE8       30.09R
$$

WIZ056-057-062-063-064-067-068-181300-
SOUTH CENTRAL WISCONSIN

CITY           SKY/WX    TMP DP  RH WIND       PRES   REMARKS
BARABOO/DELLS  FOG       50  49  95 E5        30.12R VSB 1/2
LONE ROCK      NOT AVBL
WATERTOWN      CLOUDY    49  49 100 NE8       30.12R
MADISON        FOG       51  50  96 NE8       30.13R VSB 1/2
6HR MIN TEMP:  46; 6HR MAX TEMP:  51;

MIDDLETON      CLOUDY    52  52  99 E5        30.12R
MONROE         CLEAR     46  46 100 NE9       30.09R
JANESVILLE     CLOUDY    48  46  93 E6        30.10R
$$

WIZ051-052-058>065-066-070>072-181300-
SOUTHEAST WISCONSIN

CITY           SKY/WX    TMP DP  RH WIND       PRES   REMARKS
MILWAUKEE      CLOUDY    52  48  86 N12       30.12R
6HR MIN TEMP:  52; 6HR MAX TEMP:  56;

WAUKESHA       CLOUDY    48  46  93 NE12      30.14R
MILWAUKEE/TIMM CLOUDY    50  46  87 NE10      30.13R
RACINE         CLOUDY    54  51  90 N13       30.13R
6HR MIN TEMP:  51; 6HR MAX TEMP:  55;

BURLINGTON     CLOUDY    50  50 100 N6        30.12R FOG
KENOSHA        CLOUDY    53  52  96 N5        30.11R
6HR MIN TEMP:  46; 6HR MAX TEMP:  53;

FOND DU LAC    CLOUDY    47  41  80 E9        30.16R
6HR MIN TEMP:  47; 6HR MAX TEMP:  53;

SHEBOYGAN      CLOUDY    47  42  83 N8        30.15R
6HR MIN TEMP:  47; 6HR MAX TEMP:  50;

WEST BEND      CLOUDY    46  43  87 NE8       30.14R
JUNEAU         CLOUDY    48  47  94 NE3       30.14R
$$

LSZ147-162-181300-
LAKE SUPERIOR

STATION/POSITION TIME  TEMP    WIND        PRES    WAVE
                       AIR SEA DIR/SP/G            HT/PER
                 (UTC) (F)     (DEG/KT/KT) (MB)    (FT/S)
W MID LAKE BUOY  1050   44 46  110/  8/ 12 1022.7R   2/ 5
DEVILS ISLAND    1100   44     110/ 11/ 14 1022.4F
PORT WING        1140   43      60/  8/ 11 1021.7S
SAXON HARBOR     1140   43      80/  3/  5 1021.7F
$$

LMZ867-665-643>646-181300-
LAKE MICHIGAN

STATION/POSITION TIME  TEMP    WIND        PRES    WAVE
                       AIR SEA DIR/SP/G            HT/PER
                 (UTC) (F)     (DEG/KT/KT) (MB)    (FT/S)
N MID LAKE BUOY  1050   48 57   30/ 12/ 16 1021.3R   3/ 5
NORTHPORT PIER   1100   46      10/  9/ 13 1022.0R
SISTER BAY       1042          120/  4/  9   N/A
KEWAUNEE LAKESHO 1100   44     360/  7/ 10 1020.3R
SHEBOYGAN LAKESH 1100   48 48   10/ 17/ 18 1020.9R
PORT WASHINGTON  1100   51     360/  7/ 11 1020.7
ATWATER BUOY     1100   54     360/ 17/ 23 1020.5R
MILWAUKEE LAKESH 1100   52     350/ 14/ 18   N/A
S MID LAKE BUOY  1050   61 64  300/  6/  6 1018.6R   0
KENOSHA   LAKESH 1100   55     350/ 12/ 14 1019.0R
$$

TC  - TEMPERATURE IN CELSIUS
VSB - VISIBILITY IN STATUTE MILES
WCI - WIND CHILL INDEX
HX  - HEAT INDEX



USA.gov is the U.S. government's official web portal to all federal, state and local government web resources and services.